Simultaneous Nadir Overpasses (SNOs) Predictions

Prediction of SNOs between AQUA and NOAA-19 Satellite Orbit:

Table of predicted SNOs for the next 14.0 days since TLE Epoch: 12/9/2016
Index Date (AQUA) Time (AQUA) Lat,Lon (AQUA) SZA (AQUA ) Date (NOAA-19) Time (NOAA-19) Lat,Lon (NOAA-19) SZA (NOAA-19 ) Distance(km) Time Diff (sec)
1 12/10/2016 13:42:01 -80.94, 114.07 74.25 12/10/2016 13:41:33 -80.94, 114.22 74.25 2.66 28
2 12/10/2016 14:31:28 80.95, -78.50 105.79 12/10/2016 14:32:33 80.94, -78.42 105.75 1.94 65
3 12/12/2016 19:15:45 80.95,-149.55 105.98 12/12/2016 19:15:29 80.95,-149.46 105.97 1.62 16
4 12/15/2016 00:49:29 -80.96, -53.08 73.86 12/15/2016 00:49:27 -80.95, -53.01 73.87 1.66 2
5 12/17/2016 06:23:12 80.96, 43.53 106.26 12/17/2016 06:23:21 80.95, 43.52 106.25 0.74 9
6 12/19/2016 11:07:29 80.96, -27.65 106.36 12/19/2016 11:06:17 80.95, -27.63 106.38 1.00 72
7 12/19/2016 11:56:55 -80.94, 140.27 73.69 12/19/2016 11:57:19 -80.95, 140.32 73.70 0.89 24
8 12/21/2016 16:41:12 -80.95, 69.05 73.63 12/21/2016 16:40:16 -80.95, 68.95 73.59 1.68 56




NCC Satellite Simultaneous Nadir Overpasses (SNOs) Prediction Service
